[[{"header":{"parameterUnit":"m.s-1","parameterCategory":1,"la1":30.2991,"la2":30.254,"lo1":-89.0895,"lo2":-89.0444,"dy":0.0017,"dx":0.0017,"nx":28,"ny":28,"refTime":"2023-11-17T03:00:00:Z","depth":0,"parameterNumber":2,"parameterNumberName":"U-component_of_WINDS"},"data":[0,0,0,0,0,0,0,0,0,0,0,0,0,0,0,0,0,0,0,0,0,0,0,0,0,0,0,0,0,0,0,0,0,0,0,0,0,0,0,0,0,0,0,0,0,0,0,0,0,0,0,0,0,0,0,0,0,0,1.0681,1.068,0,1.0589,1.0588,1.0587,1.0525,1.0525,1.0524,1.0524,1.0428,1.0426,1.0424,0,0,0,0,0,0,0,0,0,0,0,0,0,1.0801,1.0799,1.0681,1.0679,1.0678,1.0589,1.0588,1.0587,1.0525,1.0525,1.0524,1.0524,1.0429,1.0426,1.0423,0,0,0,0,0,0,0,0,0,0,0,0,0,1.0733,1.0798,1.0681,1.0637,1.0632,1.0589,1.0588,1.0586,1.0525,1.0525,1.0524,1.0524,1.0429,1.0426,1.0423,1.0416,0,0,1.0413,1.0412,0,0,0,0,0,0,0,0,1.0737,1.0729,1.0645,1.064,1.0634,1.0568,1.0595,1.0529,1.0526,1.0566,1.0524,1.0523,1.0475,1.0468,1.0452,1.0411,1.0407,1.0413,1.0411,1.041,1.0409,0,0,0,0,0,0,0,1.0742,1.0732,1.0644,1.0643,1.0637,1.0621,1.0611,1.0582,1.0525,1.0562,1.0558,1.0548,1.0472,1.0455,1.0449,1.0406,1.0413,1.041,1.0408,1.0407,1.0356,1.0356,0,0,0,0,0,0,1.0754,1.0736,1.0647,1.0642,1.0685,1.062,1.0608,1.059,1.0525,1.0515,1.0548,1.0545,1.0461,1.0453,1.0446,1.0433,1.041,1.0407,1.0405,1.0355,1.0356,1.0356,0,0,0,0,0,0,1.0756,1.0746,1.0651,1.0688,1.0674,1.0618,1.0598,1.0588,1.0572,1.0515,1.0504,1.0542,1.046,1.045,1.0424,1.0429,1.0405,1.0402,1.0354,1.0355,1.0356,1.0409,0,0,0,0,0,0,1.076,1.0748,1.0744,1.0688,1.0673,1.0631,1.0599,1.0587,1.0567,1.0562,1.0506,1.0496,1.0459,1.0429,1.0421,1.0424,1.04,1.0354,1.0355,1.0356,1.0406,1.0411,1.0415,0,0,0,0,0,1.0765,1.0762,1.0745,1.0734,1.0668,1.0632,1.0623,1.0581,1.0567,1.0563,1.0527,1.0498,1.043,1.0427,1.0417,1.042,1.0353,1.0354,1.0356,1.0404,1.041,1.0415,0,0,0,0,0,0,1.0819,1.0754,1.0734,1.0713,1.0679,1.0622,1.0615,1.0589,1.0557,1.0553,1.0502,1.049,1.0469,1.0442,1.044,1.041,1.0388,1.0387,1.0428,1.0434,1.0438,1.0445,1.0397,0,0,0,0,0,1.0829,1.0806,1.075,1.0737,1.0721,1.0672,1.0654,1.0625,1.0587,1.0572,1.0533,1.0497,1.0468,1.0449,1.0419,1.0402,1.0389,1.0399,1.0404,1.0408,1.0408,1.0397,1.0401,1.0361,1.0361,1.0361,0,0,1.0849,1.081,1.0799,1.0747,1.0717,1.0694,1.066,1.0636,1.0618,1.0568,1.0541,1.0512,1.0468,1.0447,1.0436,1.0423,1.0416,1.0409,1.0413,1.041,1.0399,1.0403,1.0406,1.0361,1.0361,1.0361,0,0,1.0873,1.0842,1.0828,1.0799,1.0754,1.0721,1.0719,1.0666,1.0645,1.0617,1.0579,1.0557,1.0507,1.0478,1.0456,1.0471,1.0443,1.0463,1.0487,1.0477,1.048,1.0483,1.0488,1.0491,1.0463,1.0463,1.0463,0,1.0903,1.0867,1.0824,1.0803,1.0782,1.0737,1.0722,1.0696,1.0644,1.063,1.0617,1.0554,1.0521,1.0493,1.0497,1.0481,1.0476,1.0468,1.0484,1.0486,1.0487,1.0492,1.0494,1.0466,1.0465,1.0465,1.0465,0,1.0906,1.0882,1.0876,1.0828,1.0806,1.0789,1.0743,1.0726,1.0699,1.0668,1.0641,1.06,1.0561,1.0552,1.0526,1.052,1.0514,1.0493,1.047,1.0495,1.0498,1.0499,1.047,1.0469,1.0468,1.0467,0,0,1.096,1.089,1.0889,1.0867,1.0815,1.0795,1.0776,1.0739,1.0725,1.0691,1.0673,1.0633,1.0614,1.059,1.0559,1.0551,1.0566,1.0531,1.0529,1.0539,1.0558,1.0574,1.0576,1.0547,1.0548,1.0548,1.0561,0,1.0977,1.094,1.0902,1.0879,1.0856,1.0814,1.0797,1.0764,1.0734,1.071,1.0677,1.065,1.0627,1.0612,1.0602,1.0566,1.0569,1.0565,1.053,1.0529,1.0542,1.0578,1.0594,1.0609,1.0563,1.0563,1.0563,0,1.099,1.0959,1.0935,1.0886,1.0875,1.0861,1.0824,1.0802,1.0763,1.0742,1.0716,1.0685,1.0662,1.0643,1.0611,1.0609,1.0593,1.0574,1.0573,1.0568,1.0547,1.0573,1.0613,1.0615,1.0564,1.0564,1.0564,0,1.1033,1.0985,1.0964,1.0946,1.0889,1.088,1.0856,1.0816,1.0797,1.0765,1.0752,1.0717,1.0698,1.0672,1.0632,1.0622,1.0605,1.0582,1.0586,1.0588,1.0584,1.0585,1.0622,1.0575,1.0575,1.0574,1.0574,0,1.1054,1.1041,1.0982,1.097,1.0954,1.091,1.0895,1.0866,1.0832,1.0813,1.0774,1.0756,1.0705,1.0681,1.0649,1.0628,1.062,1.0602,1.0594,1.0605,1.0608,1.0593,1.0591,1.0575,1.0575,1.0575,1.0575,0,1.1098,1.1059,1.1033,1.0982,1.0969,1.0959,1.0915,1.0901,1.087,1.0846,1.0838,1.0789,1.0759,1.0717,1.0674,1.0653,1.0636,1.0623,1.065,1.0645,1.0651,1.0651,1.068,1.0681,1.0634,1.0635,1.0635,0,1.1115,1.1103,1.1051,1.1036,1.1014,1.0989,1.097,1.0926,1.0908,1.0863,1.0855,1.0822,1.0794,1.0749,1.0709,1.0676,1.0662,1.0674,1.0656,1.0669,1.0662,1.0663,1.0662,1.0678,1.0679,1.068,1.068,0,1.1148,1.1129,1.1103,1.107,1.1048,1.102,1.099,1.098,1.093,1.0911,1.0881,1.0859,1.0816,1.0784,1.0747,1.0721,1.0692,1.0686,1.0685,1.0697,1.0713,1.0704,1.0661,1.0685,1.0685,1.0684,1.0684,1.0684,1.1178,1.1166,1.1128,1.1101,1.1074,1.1047,1.1032,1.1,1.0974,1.0937,1.0912,1.0884,1.0846,1.0792,1.0768,1.0744,1.0733,1.0731,1.0731,1.0731,1.0736,1.0717,1.0737,1.0737,1.0737,1.0737,1.0737,0,1.1209,1.1183,1.1158,1.1118,1.1096,1.1073,1.1039,1.1022,1.0997,1.0965,1.0939,1.0904,1.0874,1.0833,1.0799,1.0788,1.0774,1.0781,1.0781,1.0776,1.0748,1.0752,1.0793,1.0793,1.0793,1.0793,1.0793,1.0793,1.1222,1.1202,1.1179,1.1145,1.1119,1.1091,1.1074,1.1049,1.1023,1.0987,1.0962,1.0936,1.0899,1.0863,1.0834,1.0823,1.0812,1.0823,1.0808,1.0782,1.0777,1.0772,1.0776,1.0821,1.0821,1.0837,1.0837,1.0837]},{"header":{"parameterUnit":"m.s-1","parameterCategory":1,"la1":30.2991,"la2":30.254,"lo1":-89.0895,"lo2":-89.0444,"dy":0.0017,"dx":0.0017,"nx":28,"ny":28,"refTime":"2023-11-17T03:00:00:Z","depth":0,"parameterNumber":3,"parameterNumberName":"V-component_of_WINDS"},"data":[0,0,0,0,0,0,0,0,0,0,0,0,0,0,0,0,0,0,0,0,0,0,0,0,0,0,0,0,0,0,0,0,0,0,0,0,0,0,0,0,0,0,0,0,0,0,0,0,0,0,0,0,0,0,0,0,0,0,-5.091,-5.0911,0,-5.1033,-5.1034,-5.1036,-5.1027,-5.1026,-5.1024,-5.1022,-5.1143,-5.1147,-5.1152,0,0,0,0,0,0,0,0,0,0,0,0,0,-5.0664,-5.0669,-5.091,-5.0911,-5.0913,-5.1033,-5.1034,-5.1036,-5.1028,-5.1026,-5.1023,-5.1021,-5.1141,-5.1147,-5.1153,0,0,0,0,0,0,0,0,0,0,0,0,0,-5.0777,-5.067,-5.091,-5.0923,-5.0926,-5.1032,-5.1034,-5.1037,-5.1028,-5.1026,-5.1023,-5.102,-5.1139,-5.1146,-5.1154,-5.1253,0,0,-5.1176,-5.1179,0,0,0,0,0,0,0,0,-5.0771,-5.0786,-5.092,-5.0923,-5.0926,-5.1012,-5.0992,-5.1109,-5.1029,-5.0989,-5.1022,-5.1019,-5.1101,-5.1111,-5.114,-5.1258,-5.1264,-5.1177,-5.1181,-5.1184,-5.1186,0,0,0,0,0,0,0,-5.0763,-5.0781,-5.0958,-5.0922,-5.0925,-5.0922,-5.0935,-5.1014,-5.1059,-5.0992,-5.0992,-5.1007,-5.1102,-5.1133,-5.1143,-5.1265,-5.1176,-5.1183,-5.1187,-5.119,-5.1473,-5.1476,0,0,0,0,0,0,-5.0753,-5.0774,-5.0954,-5.0962,-5.084,-5.0929,-5.0944,-5.0987,-5.1058,-5.1066,-5.1009,-5.1006,-5.1122,-5.1134,-5.1147,-5.127,-5.1184,-5.1191,-5.1195,-5.147,-5.1474,-5.1477,0,0,0,0,0,0,-5.0747,-5.0769,-5.0949,-5.0868,-5.0891,-5.0936,-5.0985,-5.0991,-5.1022,-5.1071,-5.1078,-5.1033,-5.112,-5.1137,-5.1228,-5.1274,-5.1194,-5.1201,-5.1466,-5.1471,-5.1476,-5.1515,0,0,0,0,0,0,-5.074,-5.0767,-5.0806,-5.0869,-5.0896,-5.1029,-5.0988,-5.0995,-5.1035,-5.1033,-5.1095,-5.1103,-5.112,-5.1217,-5.1235,-5.1283,-5.1207,-5.1462,-5.1469,-5.1474,-5.151,-5.152,-5.153,0,0,0,0,0,-5.0732,-5.081,-5.0808,-5.083,-5.0945,-5.1032,-5.1047,-5.1066,-5.1039,-5.1078,-5.111,-5.1101,-5.1266,-5.1226,-5.1246,-5.1297,-5.146,-5.1467,-5.1474,-5.1505,-5.1518,-5.1529,0,0,0,0,0,0,-5.0749,-5.0819,-5.0817,-5.0919,-5.097,-5.103,-5.108,-5.1079,-5.1137,-5.1132,-5.1151,-5.1166,-5.1257,-5.1286,-5.124,-5.1398,-5.1359,-5.137,-5.1376,-5.1389,-5.1399,-5.139,-5.1213,0,0,0,0,0,-5.0765,-5.0831,-5.0887,-5.0972,-5.0998,-5.1035,-5.1073,-5.1084,-5.1137,-5.1157,-5.1195,-5.1246,-5.1309,-5.135,-5.1411,-5.1514,-5.1528,-5.1558,-5.1568,-5.1576,-5.1586,-5.1645,-5.1659,-5.15,-5.15,-5.15,0,0,-5.0797,-5.0844,-5.0884,-5.0976,-5.1017,-5.1084,-5.1053,-5.1124,-5.1174,-5.1168,-5.1257,-5.1286,-5.1344,-5.1442,-5.1486,-5.1468,-5.1633,-5.1585,-5.1591,-5.1597,-5.1653,-5.1668,-5.1682,-5.1505,-5.1504,-5.1503,0,0,-5.0892,-5.0934,-5.101,-5.1052,-5.1115,-5.114,-5.1158,-5.122,-5.124,-5.133,-5.1328,-5.1386,-5.1494,-5.1536,-5.1572,-5.1685,-5.1679,-5.1704,-5.1756,-5.1812,-5.1825,-5.1836,-5.1878,-5.1893,-5.1713,-5.1713,-5.1713,0,-5.0925,-5.1028,-5.1048,-5.1122,-5.1163,-5.1163,-5.124,-5.1279,-5.1358,-5.1386,-5.1365,-5.1503,-5.1541,-5.165,-5.1678,-5.1706,-5.1728,-5.1697,-5.1822,-5.1833,-5.1844,-5.1884,-5.19,-5.1716,-5.1716,-5.1715,-5.1715,0,-5.1065,-5.1137,-5.119,-5.127,-5.1317,-5.1391,-5.1423,-5.1468,-5.1475,-5.1501,-5.1594,-5.164,-5.1711,-5.1738,-5.1744,-5.1848,-5.1835,-5.1817,-5.1779,-5.1862,-5.19,-5.1915,-5.172,-5.1719,-5.1718,-5.1717,0,0,-5.1174,-5.1266,-5.1285,-5.1323,-5.1393,-5.1448,-5.1522,-5.1595,-5.1634,-5.1688,-5.1752,-5.1844,-5.183,-5.187,-5.1881,-5.193,-5.202,-5.1907,-5.1909,-5.1928,-5.2139,-5.2153,-5.217,-5.2016,-5.2019,-5.2021,-5.2135,0,-5.1277,-5.1413,-5.1435,-5.1553,-5.1619,-5.1621,-5.1686,-5.1736,-5.1763,-5.1823,-5.1851,-5.1918,-5.1893,-5.1917,-5.1966,-5.1998,-5.2062,-5.199,-5.2075,-5.2078,-5.2063,-5.219,-5.2204,-5.2309,-5.2149,-5.2152,-5.2154,0,-5.1416,-5.1478,-5.1603,-5.1667,-5.1696,-5.1755,-5.1824,-5.1881,-5.1937,-5.1953,-5.2,-5.2006,-5.2083,-5.2041,-5.2148,-5.2098,-5.2134,-5.2155,-5.216,-5.2169,-5.2122,-5.2204,-5.2343,-5.2359,-5.2177,-5.2175,-5.2174,0,-5.1485,-5.1599,-5.169,-5.1721,-5.1797,-5.1839,-5.1872,-5.1926,-5.1969,-5.2028,-5.2057,-5.2123,-5.216,-5.2211,-5.2235,-5.2202,-5.2341,-5.23,-5.2357,-5.2356,-5.2387,-5.2385,-5.2534,-5.2407,-5.2407,-5.2407,-5.2406,0,-5.1599,-5.1676,-5.1722,-5.1778,-5.1865,-5.1889,-5.1974,-5.2005,-5.2054,-5.2116,-5.212,-5.2177,-5.2204,-5.2266,-5.2284,-5.2371,-5.2387,-5.2402,-5.2406,-5.2403,-5.2401,-5.2427,-5.2421,-5.2411,-5.241,-5.2409,-5.2409,0,-5.1691,-5.1725,-5.1824,-5.1889,-5.1907,-5.1969,-5.2024,-5.2078,-5.2105,-5.2183,-5.2203,-5.2245,-5.2318,-5.2346,-5.2434,-5.2446,-5.2547,-5.2545,-5.2529,-5.2531,-5.2586,-5.2581,-5.2759,-5.2784,-5.2639,-5.264,-5.2642,0,-5.1762,-5.1822,-5.1895,-5.1938,-5.1974,-5.2042,-5.2086,-5.2112,-5.2158,-5.2229,-5.2275,-5.2348,-5.2408,-5.2524,-5.2561,-5.2629,-5.2629,-5.2687,-5.2639,-5.2635,-5.2632,-5.2629,-5.2636,-5.2696,-5.2697,-5.2698,-5.2699,0,-5.1886,-5.1901,-5.1966,-5.2038,-5.2091,-5.2148,-5.2204,-5.2238,-5.2273,-5.2324,-5.24,-5.2447,-5.2538,-5.2611,-5.2682,-5.2714,-5.2713,-5.2714,-5.2731,-5.2729,-5.2718,-5.2727,-5.2555,-5.271,-5.2709,-5.2708,-5.2708,-5.2707,-5.1971,-5.2026,-5.2086,-5.2159,-5.2204,-5.2257,-5.2312,-5.2347,-5.2412,-5.249,-5.2501,-5.2582,-5.2639,-5.2733,-5.2769,-5.2833,-5.2818,-5.2842,-5.2848,-5.2854,-5.2859,-5.2707,-5.2845,-5.2845,-5.2845,-5.2845,-5.2844,0,-5.2097,-5.2137,-5.2203,-5.2283,-5.234,-5.2336,-5.2398,-5.2446,-5.2519,-5.2572,-5.2632,-5.272,-5.2791,-5.2836,-5.2907,-5.295,-5.2951,-5.2968,-5.2965,-5.2973,-5.2867,-5.2847,-5.2966,-5.2966,-5.2966,-5.2966,-5.2965,-5.2965,-5.2169,-5.2262,-5.2284,-5.2399,-5.2437,-5.252,-5.2556,-5.2604,-5.2647,-5.2746,-5.2807,-5.2836,-5.2886,-5.2961,-5.3026,-5.3037,-5.3064,-5.3082,-5.3092,-5.2993,-5.298,-5.2969,-5.2949,-5.3088,-5.3088,-5.3193,-5.3194,-5.3195]}]]